Location: Apollinopolis Magna
(24.9792°N, 32.8772°E)
Time: 10:14:14
(UTC+00:00)

H-2A R/B - Pass Details

Date: 02 March 2021
Orbit: 280 x 28912 km, 28.5° (Epoch: 15 April)

Event Time Altitude Azimuth Distance (km) Brightness Sun altitude
Rises 17:18:36 0° 229° (SW) 7,356 7.7 -20.6°
Reaches altitude 10° 17:27:07 10° 213° (SSW) 3,615 5.8 -22.5°
Maximum altitude 17:31:37 16° 176° (S) 1,850 3.9 -23.5°
Enters shadow 17:31:55 16° 171° (S) 1,776 3.8 -23.6°
